Weather History for KGLY - October, 2011

Change the Weather History Date:

Saturday, October 8, 2011

  Actual Average (KSZL) Record (KSZL)
Temperature  
Mean Temperature 73 °F -  
Max Temperature 84 °F 68 °F 85 °F (2010)
Min Temperature 62 °F 48 °F 26 °F (2000)
Cooling Degree Days 8    
Growing Degree Days 23 (Base 50)    
Moisture  
Dew Point 54 °F    
Average Humidity 54    
Maximum Humidity 77    
Minimum Humidity 35    
Precipitation  
Precipitation 0.00 in - - ()
Sea Level Pressure  
Sea Level Pressure 30.15 in    
Wind  
Wind Speed 9 mph (SSE)    
Max Wind Speed 17 mph    
Max Gust Speed 23 mph    
Visibility 10 miles    
Events      
Averages and records for this station are not official NWS values.
T = Trace of Precipitation, MM = Missing Value Source: NWS Daily Summary

Daily Weather History Graph

Daily Weather History Graph

Search for Another Location

Airport or City:

Trip Planner

Search our weather history database for the weather conditions in past years. The results will help you decide how hot, cold, wet, or windy it might be!

Date:

Astronomy

Oct. 08, 2011 Rise Set
Actual Time 7:16 AM CDT 6:47 PM CDT
Civil Twilight 6:50 AM CDT 7:13 PM CDT
Nautical Twilight 6:19 AM CDT 7:44 PM CDT
Astronomical Twilight 5:48 AM CDT 8:14 PM CDT
Moon 4:56 PM CDT (10/8) 4:06 AM CDT (10/8)
Length of Visible Light 12h 23m
Length of Day
11h 30m
Waxing Gibbous, 90% of the Moon is Illuminated
Oct 8
Waxing Gibbous
Oct 11
Full
Oct 19
Last Quarter
Oct 26
New
Nov 2
First Quarter

Hourly Weather History & Observations

Time (CDT) Temp. Heat Index Dew Point Humidity Pressure Visibility Wind Dir Wind Speed Gust Speed Precip Events Conditions
12:15 AM 68.0 °F - 51.8 °F 56% 30.13 in 10.0 mi SE 6.9 mph - N/A   Clear
12:35 AM 66.2 °F - 51.8 °F 60% 30.13 in 10.0 mi SE 5.8 mph - N/A   Clear
1:15 AM 66.2 °F - 51.8 °F 60% 30.12 in 10.0 mi SE 6.9 mph - N/A   Clear
1:35 AM 66.2 °F - 51.8 °F 60% 30.12 in 10.0 mi SE 6.9 mph - N/A   Clear
2:15 AM 64.4 °F - 53.6 °F 68% 30.12 in 10.0 mi SE 5.8 mph - N/A   Clear
2:35 AM 64.4 °F - 53.6 °F 68% 30.12 in 10.0 mi SE 6.9 mph - N/A   Clear
2:55 AM 64.4 °F - 53.6 °F 68% 30.12 in 10.0 mi SE 8.1 mph - N/A   Clear
3:15 AM 66.2 °F - 53.6 °F 64% 30.12 in 10.0 mi SE 8.1 mph - N/A   Clear
3:35 AM 66.2 °F - 53.6 °F 64% 30.12 in 10.0 mi SE 8.1 mph - N/A   Clear
3:55 AM 64.4 °F - 53.6 °F 68% 30.12 in 10.0 mi SE 8.1 mph - N/A   Clear
4:15 AM 64.4 °F - 53.6 °F 68% 30.12 in 10.0 mi SE 6.9 mph - N/A   Clear
4:35 AM 64.4 °F - 53.6 °F 68% 30.12 in 10.0 mi SE 6.9 mph - N/A   Clear
4:55 AM 64.4 °F - 53.6 °F 68% 30.13 in 10.0 mi SE 8.1 mph - N/A   Clear
5:15 AM 64.4 °F - 55.4 °F 73% 30.13 in 10.0 mi SE 6.9 mph - N/A   Clear
5:35 AM 64.4 °F - 55.4 °F 73% 30.14 in 10.0 mi SE 5.8 mph - N/A   Clear
5:55 AM 64.4 °F - 55.4 °F 73% 30.14 in 10.0 mi SE 6.9 mph - N/A   Clear
6:15 AM 64.4 °F - 55.4 °F 73% 30.15 in 9.0 mi SE 5.8 mph - N/A   Clear
6:35 AM 62.6 °F - 55.4 °F 77% 30.16 in 10.0 mi SE 4.6 mph - N/A   Clear
6:55 AM 62.6 °F - 55.4 °F 77% 30.16 in 10.0 mi SE 5.8 mph - N/A   Clear
7:15 AM 62.6 °F - 55.4 °F 77% 30.17 in 10.0 mi SE 5.8 mph - N/A   Clear
7:35 AM 62.6 °F - 55.4 °F 77% 30.17 in 10.0 mi SE 5.8 mph - N/A   Clear
8:15 AM 64.4 °F - 55.4 °F 73% 30.17 in 8.0 mi SE 6.9 mph - N/A   Clear
8:35 AM 66.2 °F - 55.4 °F 68% 30.18 in 9.0 mi SE 6.9 mph - N/A   Clear
8:55 AM 68.0 °F - 57.2 °F 68% 30.19 in 8.0 mi SE 9.2 mph - N/A   Clear
9:15 AM 69.8 °F - 57.2 °F 64% 30.19 in 8.0 mi SSE 12.7 mph 16.1 mph N/A   Clear
9:55 AM 73.4 °F - 57.2 °F 57% 30.19 in 9.0 mi SSE 12.7 mph 18.4 mph N/A   Clear
10:15 AM 75.2 °F - 57.2 °F 53% 30.19 in 10.0 mi SSE 16.1 mph 20.7 mph N/A   Clear
10:35 AM 77.0 °F - 57.2 °F 50% 30.19 in 9.0 mi South 12.7 mph 18.4 mph N/A   Clear
10:55 AM 78.8 °F - 57.2 °F 47% 30.20 in 8.0 mi South 11.5 mph 19.6 mph N/A   Clear
11:15 AM 78.8 °F - 59.0 °F 51% 30.20 in 10.0 mi South 15.0 mph 20.7 mph N/A   Clear
11:35 AM 80.6 °F 81.1 °F 59.0 °F 48% 30.20 in 9.0 mi South 13.8 mph 19.6 mph N/A   Clear
11:55 AM 80.6 °F 80.8 °F 57.2 °F 45% 30.20 in 10.0 mi South 12.7 mph 23.0 mph N/A   Clear
12:15 PM 82.4 °F 82.0 °F 57.2 °F 42% 30.20 in 8.0 mi SSW 17.3 mph 23.0 mph N/A   Clear
12:35 PM 82.4 °F 82.0 °F 57.2 °F 42% 30.20 in 10.0 mi South 15.0 mph 23.0 mph N/A   Clear
12:55 PM 82.4 °F 82.0 °F 57.2 °F 42% 30.19 in 9.0 mi South 17.3 mph 20.7 mph N/A   Clear
1:15 PM 82.4 °F 82.0 °F 57.2 °F 42% 30.18 in 9.0 mi South 13.8 mph 20.7 mph N/A   Partly Cloudy
1:35 PM 84.2 °F 83.5 °F 57.2 °F 40% 30.17 in 9.0 mi South 10.4 mph 17.3 mph N/A   Clear
1:55 PM 84.2 °F 83.0 °F 55.4 °F 37% 30.16 in 10.0 mi South 13.8 mph 20.7 mph N/A   Clear
2:15 PM 84.2 °F 83.0 °F 55.4 °F 37% 30.15 in 10.0 mi SSE 15.0 mph 21.9 mph N/A   Clear
2:55 PM 84.2 °F 83.0 °F 55.4 °F 37% 30.14 in 10.0 mi South 11.5 mph 19.6 mph N/A   Partly Cloudy
3:15 PM 84.2 °F 82.8 °F 53.6 °F 35% 30.12 in 9.0 mi SSE 11.5 mph 21.9 mph N/A   Partly Cloudy
3:35 PM 84.2 °F 82.8 °F 53.6 °F 35% 30.12 in 10.0 mi SSE 11.5 mph 19.6 mph N/A   Clear
3:55 PM 84.2 °F 82.8 °F 53.6 °F 35% 30.11 in 10.0 mi South 11.5 mph - N/A   Clear
4:15 PM 84.2 °F 82.8 °F 53.6 °F 35% 30.11 in 10.0 mi SSE 15.0 mph 19.6 mph N/A   Clear
4:35 PM 82.4 °F 81.4 °F 53.6 °F 37% 30.11 in 10.0 mi South 10.4 mph 17.3 mph N/A   Clear
4:55 PM 82.4 °F 81.4 °F 53.6 °F 37% 30.10 in 9.0 mi South 12.7 mph 16.1 mph N/A   Clear
5:15 PM 82.4 °F - 51.8 °F 35% 30.10 in 10.0 mi SSE 10.4 mph 18.4 mph N/A   Clear
5:35 PM 82.4 °F - 51.8 °F 35% 30.10 in 10.0 mi SSE 13.8 mph 19.6 mph N/A   Clear
5:55 PM 80.6 °F - 51.8 °F 37% 30.10 in 9.0 mi SSE 9.2 mph 16.1 mph N/A   Clear
6:15 PM 80.6 °F 80.3 °F 53.6 °F 39% 30.11 in 10.0 mi SSE 9.2 mph 17.3 mph N/A   Clear
6:35 PM 78.8 °F - 53.6 °F 42% 30.11 in 8.0 mi SE 6.9 mph - N/A   Clear
6:55 PM 77.0 °F - 53.6 °F 44% 30.11 in 10.0 mi SE 6.9 mph - N/A   Clear
7:15 PM 75.2 °F - 53.6 °F 47% 30.12 in 10.0 mi SE 9.2 mph - N/A   Clear
7:35 PM 75.2 °F - 51.8 °F 44% 30.13 in 10.0 mi SE 8.1 mph - N/A   Clear
7:55 PM 73.4 °F - 51.8 °F 47% 30.13 in 10.0 mi SE 5.8 mph - N/A   Clear
8:15 PM 73.4 °F - 51.8 °F 47% 30.14 in 10.0 mi ESE 5.8 mph - N/A   Clear
8:35 PM 71.6 °F - 51.8 °F 50% 30.14 in 10.0 mi SE 5.8 mph - N/A   Clear
8:55 PM 71.6 °F - 51.8 °F 50% 30.14 in 10.0 mi ESE 6.9 mph - N/A   Clear
9:15 PM 71.6 °F - 51.8 °F 50% 30.15 in 10.0 mi SE 8.1 mph - N/A   Clear
9:35 PM 71.6 °F - 51.8 °F 50% 30.15 in 10.0 mi SE 5.8 mph - N/A   Clear
9:55 PM 71.6 °F - 53.6 °F 53% 30.16 in 10.0 mi SE 6.9 mph - N/A   Clear
10:15 PM 69.8 °F - 53.6 °F 56% 30.16 in 10.0 mi SE 5.8 mph - N/A   Clear
10:35 PM 69.8 °F - 53.6 °F 56% 30.17 in 10.0 mi SE 6.9 mph - N/A   Clear
10:55 PM 71.6 °F - 53.6 °F 53% 30.16 in 10.0 mi SE 9.2 mph - N/A   Clear
11:15 PM 71.6 °F - 53.6 °F 53% 30.16 in 10.0 mi SE 8.1 mph - N/A   Clear
11:35 PM 69.8 °F - 55.4 °F 60% 30.17 in 10.0 mi SE 8.1 mph 17.3 mph N/A   Clear
11:55 PM 69.8 °F - 55.4 °F 60% 30.17 in 10.0 mi SE 8.1 mph - N/A   Clear